Saint Louis, MO

9:58 PM CST on February 24, 2017 (GMT -0600)
Lambert-Saint Louis International

Weather History for KSTL - March, 2013

Change the Weather History Date:

Saturday, March 23, 2013

  Actual Average Record
Temperature  
Mean Temperature 46 °F 49 °F  
Max Temperature 54 °F 59 °F 87 °F (1910)
Min Temperature 38 °F 39 °F 7 °F (1974)
Degree Days  
Heating Degree Days 19 16  
Month to date heating degree days 579 468  
Since 1 July heating degree days 3896 4066  
Cooling Degree Days 0 0  
Month to date cooling degree days 0 0  
Year to date cooling degree days 0 0  
Moisture  
Dew Point 24 °F    
Average Humidity 51    
Maximum Humidity 70    
Minimum Humidity 32    
Precipitation  
Precipitation 0.06 in 0.11 in 1.35 in (1969)
Month to date precipitation 3.52 2.33  
Year to date precipitation 9.91 6.97  
Snow  
Snow 0.00 in 0.00 in 6.50 in (1974)
Month to date snowfall 1.5 2.0  
Since 1 July snowfall 15.1 17.0  
Snow Depth 0.00 in    
Sea Level Pressure  
Sea Level Pressure 29.98 in    
Wind  
Wind Speed 9 mph (ENE)    
Max Wind Speed 20 mph    
Max Gust Speed 24 mph    
Visibility 10 miles    
Events Rain    
T = Trace of Precipitation, MM = Missing Value Source: NWS Daily Summary

Daily Weather History Graph

Daily Weather History Graph

Search for Another Location

Airport or City:

Trip Planner

Search our weather history database for the weather conditions in past years. The results will help you decide how hot, cold, wet, or windy it might be!

Date:

Astronomy

Mar. 23, 2013 Rise Set
Actual Time 6:59 AM CDT 7:16 PM CDT
Civil Twilight 6:33 AM CDT 7:43 PM CDT
Nautical Twilight 6:02 AM CDT 8:14 PM CDT
Astronomical Twilight 5:30 AM CDT 8:46 PM CDT
Moon 3:45 PM CDT (3/23) 4:34 AM CDT (3/23)
Length of Visible Light 13h 09m
Length of Day
12h 16m
Waxing Gibbous, 85% of the Moon is Illuminated
Mar 23
Waxing Gibbous
Mar 27
Full
Apr 2
Last Quarter
Apr 10
New
Apr 18
First Quarter

Hourly Weather History & Observations

Time (CDT) Temp. Windchill Dew Point Humidity Pressure Visibility Wind Dir Wind Speed Gust Speed Precip Events Conditions
12:51 AM 37.9 °F 32.7 °F 21.0 °F 51% 30.05 in 10.0 mi ENE 6.9 mph - N/A   Overcast
1:36 AM 37.4 °F 32.8 °F 21.2 °F 52% 30.02 in 10.0 mi East 5.8 mph - N/A   Overcast
1:51 AM 37.9 °F 34.4 °F 21.9 °F 53% 30.05 in 10.0 mi East 4.6 mph - N/A   Overcast
2:45 AM 37.4 °F 32.8 °F 23.0 °F 56% 30.02 in 10.0 mi ESE 5.8 mph - N/A   Overcast
2:51 AM 37.9 °F 34.4 °F 23.0 °F 55% 30.04 in 10.0 mi ESE 4.6 mph - N/A   Overcast
3:51 AM 37.9 °F 35.5 °F 23.0 °F 55% 30.02 in 10.0 mi ENE 3.5 mph - N/A   Overcast
4:51 AM 37.9 °F 33.5 °F 21.9 °F 53% 30.02 in 10.0 mi NE 5.8 mph - N/A   Overcast
5:51 AM 37.9 °F 33.5 °F 21.9 °F 53% 30.03 in 10.0 mi NE 5.8 mph - N/A   Overcast
6:51 AM 37.9 °F 34.4 °F 21.9 °F 53% 30.06 in 10.0 mi ENE 4.6 mph - N/A   Overcast
7:51 AM 37.9 °F 33.5 °F 21.9 °F 53% 30.06 in 10.0 mi ENE 5.8 mph - N/A   Overcast
8:51 AM 39.0 °F 34.8 °F 21.9 °F 50% 30.08 in 10.0 mi NE 5.8 mph - N/A   Overcast
9:51 AM 41.0 °F 34.7 °F 21.2 °F 45% 30.04 in 10.0 mi ENE 10.4 mph - N/A   Overcast
10:51 AM 43.0 °F 37.2 °F 19.0 °F 38% 30.06 in 10.0 mi East 10.4 mph - N/A   Mostly Cloudy
11:51 AM 46.0 °F 43.1 °F 19.0 °F 34% 30.05 in 10.0 mi NE 5.8 mph - N/A   Scattered Clouds
12:51 PM 48.9 °F - 21.0 °F 33% 30.02 in 10.0 mi ENE 9.2 mph - N/A   Scattered Clouds
1:51 PM 51.8 °F - 24.8 °F 35% 29.98 in 10.0 mi NE 8.1 mph - N/A   Scattered Clouds
2:51 PM 53.6 °F - 24.8 °F 33% 29.95 in 10.0 mi NE 11.5 mph 17.3 mph N/A   Scattered Clouds
3:51 PM 53.1 °F - 26.1 °F 35% 29.92 in 10.0 mi ENE 11.5 mph - N/A   Mostly Cloudy
4:51 PM 54.0 °F - 28.0 °F 37% 29.90 in 10.0 mi ENE 17.3 mph 24.2 mph N/A   Mostly Cloudy
5:51 PM 53.1 °F - 28.0 °F 38% 29.88 in 10.0 mi East 12.7 mph - N/A   Mostly Cloudy
6:51 PM 52.0 °F - 28.9 °F 41% 29.89 in 10.0 mi East 11.5 mph - 0.00 in Rain Light Rain
7:51 PM 50.0 °F - 32.0 °F 50% 29.86 in 10.0 mi ENE 11.5 mph - 0.01 in   Overcast
8:51 PM 50.0 °F - 28.9 °F 44% 29.86 in 10.0 mi ENE 10.4 mph - N/A   Overcast
9:51 PM 48.9 °F - 28.9 °F 46% 29.86 in 10.0 mi ENE 6.9 mph - 0.00 in   Overcast
10:51 PM 46.9 °F - 30.0 °F 52% 29.88 in 10.0 mi ENE 11.5 mph - 0.00 in Rain Light Rain
11:51 PM 43.0 °F 35.7 °F 33.1 °F 68% 29.87 in 9.0 mi NE 15.0 mph 20.7 mph 0.00 in Rain Light Rain